Regional Weather Roundup
Issued by NWS

Home | Current Version | Previous Version | Text Only | Print | Product List | Glossary On
Versions: 1 2 3 4 5 6 7 8 9 10 11 12 13 14 15 16 17 18 19 20 21 22 23 24 25 26 27 28
000
ASUS46 KPQR 290710
RWROR

OREGON REGIONAL WEATHER ROUNDUP
NATIONAL WEATHER SERVICE PORTLAND OR
1200 AM PDT MON AUG 29 2016

NOTE: "FAIR" INDICATES FEW OR NO CLOUDS BELOW 12,000 FEET WITH
NO SIGNIFICANT WEATHER AND/OR OBSTRUCTIONS TO VISIBILITY.

ORZ001>013-290800-
NORTHWEST OREGON


CITY           SKY/WX    TMP DP  RH WIND       PRES   REMARKS
ASTORIA        CLEAR     56  52  86 SE3       30.06F
NEWPORT        CLOUDY    55  52  88 SW6       30.12S
PORTLAND       MOCLDY    67  53  61 NW6       30.02S
VANCOUVER WA   CLEAR     67  52  58 NW5       30.01S
SCAPPOOSE      CLEAR     66  52  60 N5        30.01S
HILLSBORO      CLEAR     65  54  67 W7        30.01S
AURORA         CLEAR     63  53  70 SW3       30.03R
MCMINNVILLE    CLEAR     60  52  74 W8        30.03R
SALEM          PTCLDY    64  51  62 SW6       30.02S
CORVALLIS        N/A     57  52  82 W15       30.05S
EUGENE         PTCLDY    59  52  77 SW13      30.06R
$$

ORZ021-028-290800-
SOUTHWEST OREGON


CITY           SKY/WX    TMP DP  RH WIND       PRES   REMARKS
NORTH BEND     CLOUDY    55  54  94 CALM      30.13S
BROOKINGS      CLOUDY    53  51  93 SE6       30.11F
ROSEBURG       CLEAR     67  54  63 N3        30.05S
SEXTON SUMMIT  CLEAR     63  43  48 NW6       30.16S
MEDFORD        CLOUDY    78  40  25 CALM      30.04R
$$

ORZ014>016-041-290800-
COLUMBIA GORGE


CITY           SKY/WX    TMP DP  RH WIND       PRES   REMARKS
TROUTDALE      CLEAR     63  51  65 CALM      30.01S
THE DALLES     CLEAR     73  45  36 W3        29.97S
$$

ORZ029>031-041-044-049-050-061>064-502-503-505>511-290800-
EASTERN OREGON


CITY           SKY/WX    TMP DP  RH WIND       PRES   REMARKS
REDMOND        PTCLDY    70  44  39 NW8       30.10R
BEND           PTCLDY    66  48  52 W6        30.12S
PRINEVILLE     PTCLDY    68  45  42 NW6       30.10S
KLAMATH FALLS  PTCLDY    56  44  64 SE5       30.17R
LAKEVIEW       CLEAR     59  23  25 S8        30.23S
HERMISTON      CLEAR     62  42  47 SE5       29.97S
PENDLETON      CLEAR     65  37  35 E8        30.01S
JOHN DAY       CLEAR     71  42  35 SW8       30.11R
MEACHAM        CLEAR     52  37  56 CALM      30.14F
LA GRANDE      CLEAR     64  37  36 W3        30.08S
BAKER CITY     CLEAR     59  44  57 S5        30.12S
BURNS          PTCLDY    55  34  45 W7        30.12S
ROME             N/A     65  23  20 S8        30.11S
ONTARIO        CLEAR     62  50  64 W5        30.03S
$$




USA.gov is the U.S. government's official web portal to all federal, state and local government web resources and services.